Home   Weather   Taiohae   Past weeks

Flag for French Polynesia Past Weather in Taiohae, Marquesas Islands, French Polynesia — Yesterday and Last 2 Weeks

Now
86 °F

Sprinkles. Overcast.


Feels Like: 89 °F
Forecast: 76 / 83 °F
Wind: 9 mph from Northeast

Location: Atuona

Current Time: Jan 20, 2017 at 5:00:00 pm

Latest Report: Jan 20, 2017 at 3:30 pm


Visibility: 5 mi

Pressure: 29.78 "Hg

Humidity: 57%

Dew Point: 69 °F

Location of TaiohaeLocation

Past Weather in Taiohae — Graph

°F

Taiohae Temperature Yesterday

Maximum temperature yesterday: 91 °F (at 1:30 pm)
Minimum temperature yesterday: 73 °F (at 3:30 am)
Average temperature yesterday: 82 °F

High & Low Weather Summary for the Past Weeks

 TemperatureHumidityPressure
High92 °F (Jan 20, 9:30 am)89% (Jan 14, 2:30 am)29.96 "Hg (Jan 14, 2:30 am)
Low72 °F (Jan 11, 2:30 am)45% (Jan 19, 12:30 pm)29.72 "Hg (Jan 16, 3:30 pm)
Average81 °F70%29.85 "Hg
* Reported Jan 5 3:30 pm — Jan 20 3:30 pm, Taiohae, Weather by CustomWeather, © 2017

Note: Actual official high and low records may vary slightly from our data, if they occured in-between our weather recording intervals... More about our weather records

Advertising

Taiohae Weather History for the Previous 24 Hours

Scroll right to see more
 ConditionsComfort  
Time TempWeatherWind HumidityBarometerVisibility
3:30 pm
Fri, Jan 20
86 °FSprinkles. Overcast.9 mph57%29.78 "Hg5 mi
2:30 pm88 °FScattered clouds.14 mph54%29.78 "Hg16 mi
1:30 pm90 °FHot.10 mph49%29.81 "HgN/A
12:30 pm89 °FScattered clouds.7 mph54%29.83 "Hg31 mi
11:30 am88 °FScattered clouds.9 mph54%29.86 "Hg31 mi
10:30 am91 °FScattered clouds.6 mph49%29.88 "Hg31 mi
9:30 am92 °FScattered clouds.3 mph50%29.89 "Hg31 mi
8:30 am88 °FPartly sunny.7 mph57%29.90 "Hg31 mi
7:30 am85 °FPartly sunny.7 mph61%29.90 "Hg31 mi
6:30 am78 °FPartly sunny.6 mph78%29.90 "Hg31 mi
5:30 am74 °FScattered clouds.6 mph81%29.88 "Hg31 mi
4:30 am74 °FMild.3 mph83%29.86 "HgN/A
3:30 am74 °FMild.3 mph84%29.84 "HgN/A
2:30 am74 °FMild.2 mph83%29.85 "HgN/A
1:30 am75 °FMild.3 mph83%29.86 "HgN/A
12:30 am75 °FMild.2 mph80%29.89 "HgN/A
11:30 pm
Thu, Jan 19
76 °FMild.2 mph81%29.91 "HgN/A
10:30 pm77 °FWarm.3 mph80%29.92 "HgN/A
9:30 pm79 °FWarm.2 mph74%29.91 "HgN/A
8:30 pm80 °FWarm.3 mph74%29.90 "HgN/A
7:30 pm81 °FWarm.5 mph69%29.89 "HgN/A
6:30 pm82 °FWarm.2 mph67%29.88 "HgN/A
5:30 pm84 °FWarm.5 mph61%29.85 "HgN/A
Weather by CustomWeather, © 2017

See weather overviewHow to use our weather pages